Skip Page Navigation
NASA JPL Caltech
NASA Logo - Jet Propulsion Laboratory + View the NASA Portal
+ Near-Earth Object (NEO) Program
Search JPL
JPL Home Earth Solar System Stars & Galaxies Technology
JPL Solar System Dynamics
BODIES ORBITS EPHEMERIDES TOOLS PHYSICAL DATA DISCOVERY FAQ SITE MAP
JPL Small-Body Database Browser
Search: [ help ]  
296788 (2009 VP1)
Classification: Main-belt Asteroid          SPK-ID: 2296788
Ephemeris | Orbit Diagram | Orbital Elements | Physical Parameters | Discovery Circumstances ]

[ hide orbit diagram ]
Orbit Diagram
Note: Make sure you have Java enabled on your browser to see the applet. This applet is provided as a 3D orbit visualization tool. The applet was implemented using 2-body methods, and hence should not be used for determining accurate long-term trajectories (over several years or decades) or planetary encounter circumstances. For accurate long-term ephemerides, please instead use our Horizons system.
Orbit Viewer

Additional Notes: the orbits shown in the applet are color coded. The planets are white lines, and the asteroid/comet is a blue line. The bright white line indicates the portion of the orbit that is above the ecliptic plane, and the darker portion is below the ecliptic plane. Likewise for the asteroid/comet orbit, the light blue indicates the portion above the ecliptic plane, and the dark blue the portion below the ecliptic plane.

Orbit Viewer applet originally written and kindly provided by Osamu Ajiki (AstroArts), and further modified by Ron Baalke (JPL).


Orbital Elements at Epoch 2456400.5 (2013-Apr-18.0) TDB
Reference: MPO245674 (heliocentric ecliptic J2000)
 Element Value Uncertainty (1-sigma)   Units 
e 0.0739682 n/a  
a 2.3983411 n/a AU
q 2.2209401 n/a AU
i 6.87219 n/a deg
node 61.36093 n/a deg
peri 185.57316 n/a deg
M 120.23515 n/a deg
tp 2455947.4002586
(2012-Jan-20.90025860)
n/a JED
period 1356.6407735
3.71
n/a
n/a
d
yr
n 0.26536133 n/a deg/d
Q 2.5757421 n/a AU
  Orbit Determination Parameters
   # obs. used (total)      68  
   first obs. used      1998-??-??  
   last obs. used      2012-11-03  
   # oppositions      6  
   planetary ephem.      DE403  
   condition code      1  
   fit RMS      0.61  
   data source      MPC:mpu  
   producer      MPCLINUX  

Additional Information
 T_jup = 3.514 

Ephemeris | Orbit Diagram | Orbital Elements | Physical Parameters | Discovery Circumstances ]

Physical Parameter Table
Parameter Symbol Value Units Sigma Reference Notes
absolute magnitude H 17.2 mag n/a MPO245674  

296788 (2009 VP1)          Discovered 2009-Nov-09 by Molnar, L. A. at Calvin-Rehoboth (G98)
Reference: 20110912/Numbers.arcLast Updated: 2011-09-14

Alternate Designations
 2009 VP1 = 1998 VG48 
Ephemeris | Orbit Diagram | Orbital Elements | Physical Parameters | Discovery Circumstances ]
ABOUT SSD CREDITS/AWARDS PRIVACY/COPYRIGHT GLOSSARY LINKS
FirstGov 2013-May-23 23:25 UT
(server date/time)  
NASA Home Page
Site Manager:   Donald K. Yeomans
Webmaster  Alan B. Chamberlin